K7NDG Weather Reports


Display with metric or nautical units.
time (UTC)temp
F
wind
direction
speed
MPH
gust
MPH
rain 1hr
in
rain 24hr
in
rain mn
in
humidity
%
barometer
mb
20260504185622 68 221 2.0 6.0 0.00 0.00 0.00 64 1013.4
20260504185119 68 263 1.0 6.0 0.00 0.00 0.00 65 1013.5
20260504184615 67 206 1.0 5.0 0.00 0.00 0.00 68 1013.5
20260504184110 66 218 2.0 5.0 0.00 0.00 0.00 69 1013.5
20260504183607 65 261 1.0 5.0 0.00 0.00 0.00 69 1013.5
20260504183105 65 260 2.0 7.0 0.00 0.00 0.00 70 1013.5
20260504182602 65 228 2.0 4.0 0.00 0.00 0.00 68 1013.8
20260504182100 65 196 2.0 6.0 0.00 0.00 0.00 70 1013.7
20260504181556 65 274 2.0 5.0 0.00 0.00 0.00 69 1013.6
20260504181054 64 262 4.0 4.0 0.00 0.00 0.00 72 1013.7
20260504180552 64 212 1.0 6.0 0.00 0.00 0.00 72 1013.6
20260504180052 63 268 0.0 7.0 0.00 0.00 0.00 73 1013.5
20260504175548 62 207 2.0 5.0 0.00 0.00 0.00 74 1013.6
20260504175045 62 252 0.0 2.0 0.00 0.00 0.00 74 1013.8
20260504174543 62 259 2.0 3.0 0.00 0.00 0.00 74 1013.7
20260504174040 61 197 0.0 5.0 0.00 0.00 0.00 75 1013.7
20260504173537 61 192 2.0 2.0 0.00 0.00 0.00 75 1013.4
20260504173034 61 249 1.0 6.0 0.00 0.00 0.00 75 1013.4
20260504172530 60 192 0.0 2.0 0.00 0.00 0.00 75 1013.5
20260504172027 60 234 3.0 4.0 0.00 0.00 0.00 77 1013.6
20260504171524 60 250 3.0 5.0 0.00 0.00 0.00 76 1013.5
20260504171021 60 274 2.0 5.0 0.00 0.00 0.00 77 1013.6
20260504170516 59 282 2.0 6.0 0.00 0.00 0.00 78 1013.6
20260504160437 57 290 0.0 3.0 0.00 0.00 0.00 82 1013.2
20260504150901 56 306 0.0 2.0 0.00 0.00 0.00 85 1012.8
20260504150358 56 301 0.0 3.0 0.00 0.00 0.00 85 1012.7
20260504141327 55 12 0.0 5.0 0.00 0.00 0.00 87 1012.6
20260504140824 55 258 1.0 3.0 0.00 0.00 0.00 87 1012.4
20260504140319 55 253 3.0 5.0 0.00 0.00 0.00 87 1012.5
20260504130748 54 258 3.0 4.0 0.00 0.00 0.00 87 1011.9
20260504130244 54 265 1.0 6.0 0.00 0.00 0.00 87 1011.6
20260504120208 53 282 0.0 2.0 0.00 0.00 0.00 87 1011.2
20260504110635 54 282 0.0 2.0 0.00 0.00 0.00 84 1010.8
20260504110131 54 294 1.0 3.0 0.00 0.00 0.00 84 1010.9
20260504100551 54 297 0.0 1.0 0.00 0.00 0.00 83 1010.5
20260504081945 56 343 0.0 1.0 0.00 0.00 0.00 75 1009.6
20260504081442 56 343 0.0 1.0 0.00 0.00 0.00 75 1009.6
20260504080938 57 349 1.0 1.0 0.00 0.00 0.00 74 1009.7
20260504080435 57 335 0.0 2.0 0.00 0.00 0.00 74 1009.7
20260504070403 59 331 0.0 2.0 0.00 0.00 0.00 71 1009.4
20260504050750 65 33 0.0 0.0 0.00 0.00 0.00 59 1009.4
20260504050247 66 33 0.0 0.0 0.00 0.00 0.00 59 1009.1
20260504045744 66 33 0.0 0.0 0.00 0.00 0.00 59 1009.2
20260504045239 66 33 0.0 0.0 0.00 0.00 0.00 58 1008.9
20260504044737 66 33 0.0 0.0 0.00 0.00 0.00 57 1009.1
20260504044234 67 33 0.0 2.0 0.00 0.00 0.00 56 1009.1
20260504043731 67 35 0.0 0.0 0.00 0.00 0.00 56 1009.1
20260504043228 67 35 0.0 0.0 0.00 0.00 0.00 56 1009.1
20260504042726 68 35 0.0 0.0 0.00 0.00 0.00 55 1009.1
20260504042222 68 35 0.0 0.0 0.00 0.00 0.00 55 1009.0
20260504041718 68 35 0.0 0.0 0.00 0.00 0.00 55 1009.1
20260504041214 68 35 0.0 0.0 0.00 0.00 0.00 55 1008.9
20260504040711 69 35 0.0 0.0 0.00 0.00 0.00 55 1008.9
20260504040208 69 35 0.0 0.0 0.00 0.00 0.00 54 1008.9
20260504035704 70 35 0.0 0.0 0.00 0.00 0.00 54 1008.8
20260504035202 70 35 0.0 0.0 0.00 0.00 0.00 53 1008.6
20260504034659 71 35 0.0 0.0 0.00 0.00 0.00 53 1008.6
20260504034156 72 35 0.0 0.0 0.00 0.00 0.00 52 1008.6
20260504033654 72 35 0.0 0.0 0.00 0.00 0.00 52 1008.7
20260504033151 73 102 0.0 0.0 0.00 0.00 0.00 51 1008.6
20260504032647 74 102 0.0 0.0 0.00 0.00 0.00 50 1008.5
20260504032145 74 102 0.0 0.0 0.00 0.00 0.00 49 1008.5
20260504031642 75 267 0.0 0.0 0.00 0.00 0.00 48 1008.5
20260504031138 76 267 0.0 0.0 0.00 0.00 0.00 46 1008.5
20260504030635 77 267 0.0 0.0 0.00 0.00 0.00 46 1008.6
20260504030131 78 267 0.0 0.0 0.00 0.00 0.00 44 1008.5
20260504025628 79 267 0.0 0.0 0.00 0.00 0.00 44 1008.6
20260504025125 80 267 0.0 0.0 0.00 0.00 0.00 44 1008.5
20260504024622 80 232 0.0 0.0 0.00 0.00 0.00 43 1008.3
20260504024119 81 232 0.0 0.0 0.00 0.00 0.00 42 1008.3
20260504023616 81 232 0.0 0.0 0.00 0.00 0.00 41 1008.4
20260504023111 81 232 0.0 1.0 0.00 0.00 0.00 41 1008.3
20260504022608 82 232 0.0 3.0 0.00 0.00 0.00 41 1008.3
20260504022104 82 252 0.0 2.0 0.00 0.00 0.00 40 1008.4
20260504021602 83 206 0.0 4.0 0.00 0.00 0.00 41 1008.1
20260504021058 84 253 2.0 2.0 0.00 0.00 0.00 40 1008.3
20260504020555 84 169 0.0 2.0 0.00 0.00 0.00 34 1008.1
20260504020051 84 186 0.0 1.0 0.00 0.00 0.00 34 1008.2
20260504015548 85 278 0.0 3.0 0.00 0.00 0.00 33 1008.1
20260504015044 85 252 0.0 3.0 0.00 0.00 0.00 33 1008.4
20260504014540 85 26 0.0 3.0 0.00 0.00 0.00 33 1008.4
20260504014038 85 192 0.0 3.0 0.00 0.00 0.00 34 1008.4
20260504013535 85 229 2.0 5.0 0.00 0.00 0.00 33 1008.5
20260504013032 86 267 0.0 3.0 0.00 0.00 0.00 34 1008.5
20260504012530 86 2 0.0 2.0 0.00 0.00 0.00 33 1008.5
20260504012028 86 244 0.0 3.0 0.00 0.00 0.00 35 1008.6
20260504011524 86 206 0.0 2.0 0.00 0.00 0.00 39 1008.6
20260504011020 86 282 3.0 4.0 0.00 0.00 0.00 39 1008.6
20260504010516 86 164 2.0 3.0 0.00 0.00 0.00 39 1008.7
20260504010012 86 241 1.0 5.0 0.00 0.00 0.00 38 1008.7
20260504005509 87 218 2.0 4.0 0.00 0.00 0.00 38 1008.7
20260504005006 87 240 2.0 6.0 0.00 0.00 0.00 37 1008.6
20260504004504 87 182 0.0 2.0 0.00 0.00 0.00 38 1008.7
20260504004001 87 1 0.0 3.0 0.00 0.00 0.00 37 1008.8
20260504003457 88 210 2.0 5.0 0.00 0.00 0.00 36 1008.8
20260504002954 88 246 1.0 3.0 0.00 0.00 0.00 36 1008.7
20260504002451 88 237 2.0 3.0 0.00 0.00 0.00 36 1009.0
20260504001948 89 204 1.0 2.0 0.00 0.00 0.00 35 1009.1
20260504001446 89 192 3.0 4.0 0.00 0.00 0.00 34 1008.8
20260504000942 89 192 0.0 5.0 0.00 0.00 0.00 34 1008.7
20260504000439 89 187 0.0 2.0 0.00 0.00 0.00 34 1009.0
20260503235936 89 140 2.0 3.0 0.00 0.00 0.00 35 1009.2
20260503235434 88 206 1.0 2.0 0.00 0.00 0.00 35 1009.0
20260503234931 88 192 1.0 4.0 0.00 0.00 0.00 35 1009.1
20260503234429 88 204 1.0 2.0 0.00 0.00 0.00 36 1009.2
20260503233927 88 258 0.0 4.0 0.00 0.00 0.00 35 1009.2
20260503233423 88 121 2.0 3.0 0.00 0.00 0.00 34 1009.3
20260503232919 88 181 4.0 4.0 0.00 0.00 0.00 34 1009.2
20260503232416 88 133 2.0 3.0 0.00 0.00 0.00 36 1009.3
20260503231914 88 267 1.0 3.0 0.00 0.00 0.00 36 1009.3
20260503231411 88 180 1.0 3.0 0.00 0.00 0.00 37 1009.5
20260503230908 88 102 2.0 5.0 0.00 0.00 0.00 33 1009.5
20260503230404 88 210 0.0 4.0 0.00 0.00 0.00 37 1009.7
20260503225902 88 227 1.0 3.0 0.00 0.00 0.00 38 1009.7
20260503225358 88 44 2.0 3.0 0.00 0.00 0.00 35 1009.9
20260503224854 88 123 1.0 4.0 0.00 0.00 0.00 37 1009.7
20260503224351 87 173 0.0 5.0 0.00 0.00 0.00 36 1009.9
20260503223849 87 135 1.0 6.0 0.00 0.00 0.00 36 1010.0
20260503223347 87 185 2.0 5.0 0.00 0.00 0.00 37 1010.0
20260503222842 87 237 3.0 5.0 0.00 0.00 0.00 36 1010.2
20260503222341 87 97 2.0 3.0 0.00 0.00 0.00 36 1010.5
20260503221838 87 108 0.0 3.0 0.00 0.00 0.00 37 1010.3
20260503221337 87 121 4.0 5.0 0.00 0.00 0.00 36 1010.3
20260503220832 87 185 0.0 4.0 0.00 0.00 0.00 36 1010.4
20260503220330 87 192 3.0 4.0 0.00 0.00 0.00 34 1010.6
20260503215826 86 186 1.0 4.0 0.00 0.00 0.00 37 1010.8
20260503215324 86 192 3.0 4.0 0.00 0.00 0.00 37 1010.7
20260503214821 86 142 3.0 4.0 0.00 0.00 0.00 34 1010.9
20260503214318 86 102 0.0 3.0 0.00 0.00 0.00 37 1010.9
20260503213816 86 174 1.0 4.0 0.00 0.00 0.00 37 1010.7
20260503213313 86 159 2.0 5.0 0.00 0.00 0.00 36 1011.1
20260503212810 85 195 3.0 4.0 0.00 0.00 0.00 37 1010.8
20260503212308 85 136 3.0 4.0 0.00 0.00 0.00 38 1011.2
20260503211805 85 89 2.0 4.0 0.00 0.00 0.00 37 1011.0
20260503211302 85 110 3.0 5.0 0.00 0.00 0.00 37 1011.1
20260503210801 84 195 2.0 3.0 0.00 0.00 0.00 36 1011.4
20260503210259 84 135 1.0 4.0 0.00 0.00 0.00 38 1011.1
20260503205754 84 127 2.0 6.0 0.00 0.00 0.00 37 1011.2
20260503205251 84 100 5.0 6.0 0.00 0.00 0.00 35 1011.3
20260503204748 84 138 3.0 5.0 0.00 0.00 0.00 40 1011.4
20260503204245 84 170 2.0 4.0 0.00 0.00 0.00 42 1011.5
20260503203743 83 129 4.0 4.0 0.00 0.00 0.00 39 1011.5
20260503203240 82 240 2.0 5.0 0.00 0.00 0.00 39 1011.6
20260503202737 83 38 0.0 5.0 0.00 0.00 0.00 38 1011.6
20260503202235 83 192 1.0 4.0 0.00 0.00 0.00 39 1011.8
20260503201732 83 180 2.0 5.0 0.00 0.00 0.00 39 1012.1
20260503201230 82 171 0.0 5.0 0.00 0.00 0.00 41 1012.0
20260503200726 82 122 2.0 5.0 0.00 0.00 0.00 40 1012.1
20260503200222 82 126 2.0 7.0 0.00 0.00 0.00 37 1012.2
20260503195719 82 73 2.0 7.0 0.00 0.00 0.00 41 1012.3
20260503195216 81 117 4.0 5.0 0.00 0.00 0.00 40 1012.3
20260503194714 81 117 2.0 4.0 0.00 0.00 0.00 39 1012.3
20260503194210 81 141 0.0 4.0 0.00 0.00 0.00 43 1012.3
20260503193706 81 124 3.0 5.0 0.00 0.00 0.00 41 1012.4
20260503193202 81 122 0.0 4.0 0.00 0.00 0.00 43 1012.4
20260503192657 80 144 2.0 5.0 0.00 0.00 0.00 39 1012.4
20260503192153 80 192 1.0 7.0 0.00 0.00 0.00 39 1012.5
20260503191649 79 109 4.0 5.0 0.00 0.00 0.00 42 1012.7
20260503191147 79 97 4.0 6.0 0.00 0.00 0.00 41 1012.7
20260503190644 79 123 7.0 7.0 0.00 0.00 0.00 40 1012.7
20260503190141 79 163 1.0 5.0 0.00 0.00 0.00 42 1012.8